Location: Brienzwiler
(46.7508°N, 8.1014°E)
Time: 15:52:32
(UTC+00:00)

Cosmos 783 Rocket - Pass Details

Date: 05 July 2020
Orbit: 758 x 780 km, 74.1° (Epoch: 10 August)

Event Time Altitude Azimuth Distance (km) Brightness Sun altitude
Rises 20:23:47 0° 193° (SSW) 3,227 7.4 -8.6°
Reaches altitude 10° 20:26:10 10° 191° (S) 2,301 6.6 -8.9°
Maximum altitude 20:31:21 70° 109° (ESE) 815 4.5 -9.5°
Drops below altitude 10° 20:36:33 10° 26° (NNE) 2,305 7.3 -10.0°
Sets 20:38:56 0° 24° (NNE) 3,232 8.1 -10.3°
